Regional Weather Roundup
Issued by NWS Cleveland, OH

Home | Current Version | Previous Version | Graphics & Text | Print | Product List | Glossary On
Versions: 1 2 3 4 5 6 7 8 9 10 11 12 13 14 15 16 17 18 19 20 21 22 23 24 25 26 27 28 29 30 31 32 33 34 35 36 37 38 39 40 41 42 43 44 45 46 47 48 49 50
000
ASUS41 KCLE 180500
RWRCLE
OHIO REGIONAL WEATHER ROUNDUP
NATIONAL WEATHER SERVICE WILMINGTON, OH
1200 AM EST THU DEC 18 2014

NOTE: "FAIR" INDICATES FEW OR NO CLOUDS BELOW 12,000 FEET WITH NO
SIGNIFICANT WEATHER AND/OR OBSTRUCTIONS TO VISIBILITY.

OHZ001>008-015>018-024>027-034-035-043-044-180600-
   NORTHWEST OHIO

CITY           SKY/WX    TMP DP  RH WIND       PRES   REMARKS
DEFIANCE       NOT AVBL
FINDLAY        CLOUDY    28  22  78 W15       30.21S WCI  16
TOLEDO EXPRESS CLOUDY    29  20  69 W9        30.21R WCI  20
TOLEDO METCALF CLOUDY    30  19  63 NW14      30.22R WCI  19
LIMA           CLOUDY    30  21  69 W9        30.22S WCI  22
$$

OHZ009>014-019>023-028>033-038-089-180600-
   NORTHEAST OHIO

CITY           SKY/WX    TMP DP  RH WIND       PRES   REMARKS
CLE-HOPKINS    FLURRIES  29  21  72 W16       30.18R WCI  17
CLE-LAKEFRONT  CLOUDY    31  22  69 W23G32    30.15R WCI  18
CUY CO. ARPT   NOT AVBL
LORAIN-ELYRIA  CLOUDY    29  20  69 W10G20    30.17R WCI  20
ASHTABULA      CLOUDY    30  23  75 W15G21    30.10S WCI  19
AKRON-CANTON   CLOUDY    28  20  71 W10G24    30.14S WCI  19
WOOSTER        NOT AVBL
MANSFIELD      CLOUDY    26  21  81 W8        30.17R WCI  18
YOUNGSTOWN     FLURRIES  28  20  71 W16       30.10S WCI  16
$$

OHZ042-051>053-060>062-070>072-077>081-180600-
  SOUTHWEST OHIO

CITY           SKY/WX    TMP DP  RH WIND       PRES   REMARKS
CINC-COVINGTON CLOUDY    28  19  69 NW8       30.27R WCI  20
CINC-LUNKEN    CLOUDY    28  21  75 N8        30.31R WCI  20
HAMILTON       CLOUDY    27  20  75 W6        30.30R WCI  20
DAYTON         NOT AVBL
WRIGHT-PAT AFB NOT AVBL
DAYTON GENERAL CLOUDY    26  19  74 NW7       30.25S WCI  18
WILMINGTON     CLOUDY    25  19  78 NW7       30.25R WCI  17
$$

OHZ036-037-039>041-045>050-054>059-063>069-073>076-082>088-180600-
  CENTRAL AND SOUTHEAST OHIO

CITY           SKY/WX    TMP DP  RH WIND       PRES   REMARKS
COLUMBUS       CLOUDY    27  18  69 NW10      30.23S WCI  17
OSU AIRPORT    CLOUDY    27  19  72 W8        30.23R WCI  19
BOLTON FIELD   NOT AVBL
RICKENBACK AFB NOT AVBL
NEWARK         CLOUDY    28  19  69 W7        30.22S WCI  21
MARION         CLOUDY    27  20  75 W13       30.22R WCI  16
LANCASTER      CLOUDY    27  21  78 W5        30.24S WCI  22
ZANESVILLE     CLOUDY    27  18  69 W12       30.21R WCI  17
NEW PHILLY     CLOUDY    29  20  69 W9        30.20R WCI  20
$$



USA.gov is the U.S. government's official web portal to all federal, state and local government web resources and services.